Location: Okie-Tex Star Party
(36.8978°N, 102.9520°W)
Time: 14:30:01
(UTC-05:00)

Daily predictions for brighter satellites

Satellite Brightness Start Highest point End
(mag) Time Altitude Azimuth Time Altitude Azimuth Time Altitude Azimuth
S3M 4.4 21:38:58 10° N 21:44:49 46° E 21:50:40 10° SSE
Cosmos 371 Rocket 3.8 21:40:35 10° N 21:45:11 43° ENE 21:49:45 10° SE
ERS-1 Rocket 3.3 21:40:50 10° SSE 21:45:43 53° ENE 21:50:37 10° N
Cosmos 2228 Rocket 3.4 21:43:21 10° N 21:47:43 50° E 21:52:05 10° SSE
SPOT 5 4.1 21:46:33 10° ESE 21:50:09 24° ENE 21:53:54 10° NNE
ALOS 2.8 21:46:28 10° S 21:51:03 61° W 21:55:42 10° NNW
Cosmos 1743 Rocket 3.7 21:49:05 10° S 21:53:28 58° E 21:57:52 10° NNE
Resurs 01 Rocket 4.4 21:51:49 10° SW 21:54:29 16° W 21:57:10 10° NW
USA 186 2.7 21:52:57 10° SSW 21:55:08 33° W 21:57:22 10° NNW
Cosmos 1500 Rocket 3.9 21:56:06 10° SSE 22:00:15 45° E 22:04:27 10° NNE
Cosmos 2221 4.0 21:58:28 10° NNW 22:02:25 38° W 22:06:23 10° SSW
deb Chang Zheng 4 3.5 22:00:30 10° NNE 22:04:49 70° ESE 22:09:08 10° S
CZ-2C R/B -0.4 22:05:00 15° SSE 22:06:16 64° ENE 22:07:59 10° N
Cosmos 2219 4.4 22:02:33 10° SSE 22:06:46 21° E 22:10:59 10° NE
Cosmos 1441 Rocket 3.2 22:05:30 10° S 22:09:15 63° E 22:12:58 10° NNE
PSLV R/B 4.4 22:10:10 15° ESE 22:12:05 26° ENE 22:14:43 10° NNE
ATLAS CENTAUR R/B 1.8 22:08:45 10° NW 22:13:12 63° WSW 22:17:04 11° SSE
Delta 2 Rocket 3.4 22:12:00 10° SW 22:15:20 37° SSE 22:17:57 13° E
SJ-11-01 4.5 22:13:01 10° S 22:17:42 75° WSW 22:22:27 10° NNW
Cosmos 1538 Rocket 4.0 22:15:29 10° NNW 22:20:51 85° ENE 22:25:46 12° SSE
Cosmos 2322 Rocket 2.3 22:17:22 10° NNW 22:23:00 82° WSW 22:28:11 12° SSE
AVUM R/B 2.4 22:24:08 17° S 22:25:39 51° ESE 22:28:00 10° NNE
USA 245 4.4 22:26:25 15° E 22:26:50 15° ENE 22:28:28 10° NE
Cosmos 1939 Rocket 2.9 22:24:24 11° S 22:28:14 78° WSW 22:32:10 10° NNW
Cosmos 1515 Rocket 3.5 22:25:41 10° N 22:30:09 90° E 22:34:05 13° S
Cosmos 1908 3.4 22:26:29 10° N 22:30:18 53° E 22:32:46 20° SSE
SL-16 R/B 2.4 22:26:40 10° NNW 22:32:20 73° WSW 22:37:15 14° SSE
Cosmos 1980 Rocket 4.2 22:28:26 10° NW 22:32:54 24° WSW 22:37:22 10° SSW
Cosmos 2360 Rocket 2.8 22:28:29 10° N 22:33:51 43° ENE 22:37:27 20° SE
CZ-4B R/B 3.8 22:30:14 10° NNE 22:35:20 47° E 22:39:32 14° S
Cosmos 2315 Rocket 4.5 22:32:36 10° N 22:38:29 43° ENE 22:42:17 21° SE
Cosmos 2266 Rocket 4.0 22:34:55 10° S 22:41:15 83° E 22:47:31 10° N
Cosmos 1633 Rocket 4.5 22:42:16 19° ESE 22:43:02 20° E 22:46:13 10° NE
Sich 1 4.4 22:42:31 20° ESE 22:43:26 22° E 22:46:48 10° NE
Cosmos 773 Rocket 3.9 22:42:14 10° NNW 22:47:27 85° ENE 22:50:49 23° SSE
CZ-4 SHROUD 3.2 22:46:44 28° S 22:48:15 76° W 22:51:23 10° NNW
Cosmos 1674 2.8 22:44:48 11° SSW 22:48:24 74° W 22:52:15 10° N
Meteor 2-2 Rocket 4.5 22:43:26 10° NNW 22:49:26 78° W 22:54:34 15° S
Meteor 2-20 Rocket 4.4 22:43:18 10° S 22:49:28 90° E 22:55:39 10° N
Cosmos 2151 2.8 22:46:46 18° S 22:49:49 75° E 22:54:02 10° N
USA 229 DEB 4.1 22:43:53 10° SW 22:50:44 66° NW 22:57:43 10° NNE
USA 229 4.1 22:43:59 10° SW 22:50:50 67° NW 22:57:49 10° NNE
MetOp-B 4.1 22:47:47 20° SSE 22:51:32 83° ENE 22:56:54 10° NNW
Terra 3.5 22:51:23 16° E 22:53:02 19° ENE 22:56:24 10° NNE
Cosmos 1437 Rocket 3.2 22:49:54 10° NNW 22:53:38 57° W 22:56:06 20° S
DELTA 2 R/B(2) 3.8 22:53:18 10° W 22:55:01 57° N 22:55:43 35° NE
Cosmos 1805 Rocket 3.8 22:54:12 29° SSE 22:56:08 49° E 23:00:26 10° NNE
Cosmos 2227 Rocket 4.0 22:57:46 13° E 22:57:46 13° E 22:59:35 10° ENE
GPS 2-04 Rocket1 4.0 22:53:51 10° W 22:57:34 28° SSW 22:58:33 25° S
Cosmos 1300 3.5 22:56:02 10° NNE 22:59:33 33° E 23:00:11 31° E
Cosmos 1151 Rocket 3.1 22:55:34 10° NNW 22:59:51 73° W 23:02:24 24° S
Cosmos 2333 Rocket 4.3 23:00:57 10° NNE 23:04:12 15° NE 23:07:11 11° E
OAO 2 Rocket 4.2 23:00:20 10° SW 23:04:31 29° SSE 23:04:31 29° SSE
CZ-4 R/B 3.8 23:00:13 10° NNE 23:05:08 65° E 23:07:46 27° S
CZ-4C R/B 3.9 23:07:42 32° E 23:07:58 32° ENE 23:11:06 10° N
NOSS 3-1 (A) 3.6 23:07:22 24° S 23:10:27 45° ESE 23:16:24 10° NE
Cosmos 1328 4.0 23:09:59 24° SSW 23:12:16 67° W 23:16:13 10° N
H-2A R/B 4.2 23:08:47 10° SSW 23:12:26 24° W 23:16:06 10° NW
Envisat 4.4 23:10:50 11° SSW 23:15:07 34° W 23:19:44 10° NNW
COSMOS 2428 3.2 23:10:57 10° N 23:16:25 46° ENE 23:18:35 32° ESE
Cosmos 1707 Rocket 3.6 23:12:28 10° N 23:16:47 60° E 23:17:49 46° SE
Cosmos 1666 Rocket 3.5 23:16:58 44° SSE 23:18:08 64° E 23:22:30 10° NNE
Cosmos 2058 2.9 23:19:08 35° SSW 23:20:48 78° W 23:24:55 10° N
YAOGAN 6 3.4 23:20:33 32° SSW 23:21:46 45° W 23:25:17 10° NNW
Cosmos 1455 4.4 23:20:20 10° NE 23:21:56 14° ENE 23:21:56 14° ENE
DELTA 2 R/B (1) 3.5 23:18:39 10° WNW 23:24:13 89° NNE 23:26:42 34° ESE
Cosmos 2297 Rocket 4.0 23:25:45 15° E 23:25:45 15° E 23:27:53 10° ENE
Cosmos 2298 Rocket 4.0 23:22:18 33° S 23:24:40 68° ESE 23:29:57 10° NNE
Cosmos 2112 Rocket 4.0 23:20:58 10° NNW 23:26:13 83° WSW 23:28:08 40° S
SL-23 DEB 3.9 23:22:20 10° NW 23:26:42 55° NE 23:27:14 48° ENE
SPOT 5 4.3 23:25:09 15° SSW 23:28:04 29° W 23:32:07 10° NW
Meteor 2-11 Rocket 4.4 23:24:06 10° N 23:30:17 80° E 23:32:49 38° SSE
Cosmos 1470 Rocket 4.5 23:31:55 32° E 23:31:55 32° E 23:35:24 10° NNE
Cosmos 1933 Rocket 4.5 23:33:20 33° E 23:33:20 33° E 23:37:03 10° NNE
ATLAS 2AS CENTAUR R/B 3.7 23:32:38 29° ESE 23:33:05 29° ESE 23:39:34 10° NE
Cosmos 2219 Rocket 3.2 23:31:46 10° N 23:36:49 34° ENE 23:38:24 29° E
Cosmos 1937 Rocket 3.6 23:36:51 49° SE 23:37:33 52° ESE 23:42:36 10° NNE
Cosmos 2237 4.2 23:32:24 10° NNW 23:38:10 76° ENE 23:39:52 47° SE
ARGOS 3.5 23:37:20 34° SSW 23:39:37 61° W 23:44:58 10° NNW
SL-14 R/B 3.5 23:40:46 54° SW 23:41:26 66° W 23:45:24 10° N
Cosmos 1703 3.4 23:42:49 60° ENE 23:42:49 60° ENE 23:46:21 10° NNE
H-2A R/B 2.1 23:41:19 50° SE 23:42:41 72° ENE 23:48:05 10° N
IGS 5A 3.6 23:43:55 56° E 23:44:00 56° ENE 23:48:05 10° N
SL-08 RB Rocket 4.2 23:46:47 42° SW 23:47:50 52° W 23:52:13 10° NNW
Cosmos 1271 Rocket 2.9 23:46:40 10° N 23:50:04 62° NE 23:50:04 62° NE
Cosmos 2219 4.1 23:44:58 10° SW 23:50:30 48° WNW 23:56:03 10° N
Meteor 1-27 4.5 23:47:19 10° NNW 23:52:56 62° W 23:54:52 39° SSW
Cosmos 990 Rocket 4.1 23:53:27 51° E 23:53:27 51° E 23:58:19 10° NNE
Cosmos 2242 Rocket 3.4 23:49:15 10° N 23:53:44 89° WSW 23:54:03 77° S
DELTA 2 DEB (DPAF) 4.5 23:53:54 51° SW 23:54:36 58° W 23:59:02 10° NNW
